Wind_Speed
39 40 41 38 36 42 43 52 41 40 39 41 30 30 42 38 34 34 37 37 37 39 40 39 36 36 36 36 38 36 35 36 35 32 31 30 30 29 29 31 30 27 25
42 46 40 54 44 41 37 38 38 36 34 27 25 32 39 41 32 40 39 41 42 44 43 44 42 41 39 39 37 39 41 40 37 33 34 34 35 35 36 35 34 33 32
45 50 52 49 41 42 36 32 34 33 38 42 39 42 40 44 43 44 47 48 49 52 51 49 47 48 46 44 44 40 38 40 42 40 35 35 36 39 41 40 37 35 34
47 41 37 43 42 43 37 44 46 48 45 43 42 45 49 53 51 48 51 52 55 57 58 57 55 53 52 50 49 46 45 44 44 43 42 40 39 40 40 40 39 37 33
46 53 52 55 45 47 51 51 49 50 50 54 55 57 56 57 60 61 64 67 66 64 63 65 64 63 61 61 60 55 54 53 48 47 44 42 40 42 45 42 40 38 34
53 55 54 53 52 52 55 59 61 62 65 67 69 69 68 67 69 71 73 77 77 76 73 70 68 68 67 65 64 66 63 59 55 53 48 45 42 43 44 44 44 41 35
54 55 54 53 53 56 59 61 64 67 70 72 74 74 75 75 76 78 80 81 80 78 78 76 73 70 70 68 66 66 66 67 64 60 56 51 46 47 48 46 46 45 38
53 54 56 58 61 62 64 66 68 70 72 74 75 77 78 78 79 81 83 84 84 82 82 81 81 77 73 72 73 71 68 67 65 66 64 61 57 52 52 50 48 45 40
55 57 58 59 59 61 62 64 67 69 71 74 75 78 81 81 83 85 86 87 86 84 85 84 83 82 80 79 79 75 74 69 68 66 64 63 61 59 57 55 52 51 43
53 54 56 57 59 60 61 64 67 70 74 77 79 81 83 86 83 85 88 89 87 87 84 82 82 82 82 83 81 80 79 72 74 72 68 64 58 59 60 60 57 54 50
49 50 52 54 56 56 58 63 67 69 70 71 69 65 63 63 63 65 67 69 70 69 68 70 72 78 83 84 84 83 77 75 78 77 74 70 67 56 56 60 61 57 55
47 47 48 49 52 53 57 59 60 59 59 60 59 57 58 56 54 58 58 60 62 62 58 57 60 63 69 74 80 82 80 77 77 76 75 71 69 64 55 56 57 59 57
40 43 46 49 52 53 53 47 49 46 48 47 47 53 58 62 63 59 59 63 62 59 58 53 51 54 57 60 64 71 76 80 79 76 73 71 68 66 64 57 58 54 55
43 46 49 52 51 48 43 45 46 48 49 48 48 50 50 51 49 52 55 58 56 57 59 60 56 53 58 59 57 60 59 63 71 75 72 68 68 66 65 61 57 54 51
45 47 48 45 40 39 42 43 41 41 46 46 44 40 39 40 36 31 35 38 48 52 58 58 61 67 60 58 60 56 55 54 54 64 67 66 65 66 64 62 58 54 53
41 37 34 33 34 38 36 32 33 33 38 43 47 40 35 36 43 29 31 29 35 36 39 42 43 46 49 52 56 60 53 49 49 49 60 63 61 62 62 61 57 55 55
27 27 28 30 29 26 27 26 21 25 28 33 38 35 30 36 41 27 26 41 35 32 31 32 31 30 32 37 44 53 50 44 43 42 47 58 59 58 60 59 57 57 57
17 16 16 16 15 18 20 21 23 25 27 30 33 37 35 33 37 42 37 31 40 30 31 30 26 23 20 20 29 42 49 44 40 38 43 50 57 56 58 59 59 57 56
13 13 12 15 17 19 21 23 23 24 26 29 31 33 35 33 36 32 32 37 39 27 26 28 22 17 14 14 18 24 35 40 37 37 38 45 51 54 55 56 56 56 57
15 16 16 17 18 17 19 21 22 22 23 24 28 30 34 33 37 31 35 22 31 30 24 27 18 14 10 9 14 20 27 33 36 38 38 39 48 50 52 54 54 56 55
13 13 13 13 16 19 22 24 23 22 22 21 24 28 32 34 38 38 32 26 24 22 19 8 8 17 11 11 13 18 23 27 30 31 34 35 38 42 48 49 50 55 52
13 14 16 18 20 23 24 25 24 23 23 24 22 20 24 29 31 36 37 38 32 17 11 11 7 5 18 18 11 15 20 25 29 26 27 32 32 48 35 31 36 43 48
18 20 22 23 24 24 25 26 27 27 27 27 29 28 23 22 25 27 31 33 30 30 32 28 26 14 9 8 11 15 11 18 21 29 31 26 42 30 37 36 43 43 49
21 21 21 21 23 24 24 25 27 28 29 29 30 31 33 32 29 28 26 24 29 29 28 26 23 24 26 13 14 10 11 13 17 17 18 20 31 22 22 26 21 16 26
22 23 25 26 27 28 28 28 29 30 32 33 34 33 33 34 34 31 31 29 24 22 22 22 24 26 21 19 22 19 14 6 10 15 17 21 21 20 21 19 21 22 26
25 27 28 29 31 31 32 33 33 33 31 31 32 34 35 33 34 34 32 31 34 34 28 22 21 22 20 22 23 21 17 15 12 19 18 18 17 20 23 26 30 32 34
Wind_Direction
271 270 278 271 270 282 282 288 280 277 281 264 259 282 266 257 271 273 275 274 277 276 275 273 272 272 274 277 279 280 278 278 276 275 272 268 270 272 275 281 285 286 290
276 279 278 281 283 277 284 268 271 279 279 265 269 285 284 276 271 277 271 275 280 275 274 273 272 272 273 274 274 278 280 280 278 274 270 269 269 268 269 272 277 286 289
276 279 271 272 274 276 274 262 271 280 265 283 285 274 275 266 261 259 264 267 269 270 269 269 270 272 273 273 275 274 274 277 279 277 272 269 266 266 268 271 274 276 281
259 267 254 263 269 275 280 284 294 287 288 277 273 276 269 265 260 260 263 267 269 269 272 274 276 276 275 274 272 274 274 272 274 277 276 272 273 275 272 272 273 275 274
266 266 269 290 287 286 286 288 285 285 280 279 278 278 275 270 268 264 273 277 276 273 270 270 270 271 271 271 272 270 270 271 270 269 272 274 269 270 273 273 273 271 273
273 279 283 283 282 280 280 280 284 286 285 285 285 284 281 278 275 273 270 275 276 277 275 272 269 268 270 270 270 271 271 268 268 268 268 267 270 269 266 271 274 273 274
275 278 281 284 283 282 282 283 284 284 283 282 282 281 281 281 280 279 279 278 277 277 276 274 270 268 268 270 269 268 269 270 268 265 267 267 265 266 266 267 268 270 272
275 277 278 280 282 285 287 286 286 286 286 286 287 287 287 285 282 280 278 276 275 274 274 274 274 272 268 265 265 265 265 267 268 267 264 264 265 261 263 265 265 266 266
276 280 283 286 287 287 287 288 290 291 292 292 291 290 287 286 285 282 280 278 276 274 273 271 271 270 270 267 263 261 261 260 263 264 265 262 259 260 261 260 264 267 266
282 283 284 285 287 289 292 294 295 294 293 293 292 290 289 287 287 285 282 280 277 274 272 270 268 268 266 264 262 261 261 261 259 258 258 261 257 254 258 260 261 263 266
282 283 285 288 290 293 294 294 294 293 294 294 292 291 288 287 287 285 281 278 277 274 273 271 267 264 261 260 260 258 257 254 256 256 255 254 258 256 254 256 260 258 260
284 287 289 290 292 292 292 295 295 296 295 294 293 290 290 291 290 283 283 284 282 280 278 272 268 267 261 255 256 256 254 249 248 252 254 253 253 255 254 255 256 256 257
284 286 287 289 290 293 295 293 295 295 301 304 300 294 292 291 290 285 282 277 278 278 275 273 271 267 264 259 257 253 249 249 247 244 243 247 248 250 249 247 250 253 254
285 288 289 291 293 292 290 292 296 302 305 313 307 305 302 300 300 295 289 282 278 281 282 280 276 272 262 257 256 252 252 253 248 245 241 240 241 245 248 248 245 247 249
286 288 291 290 287 290 292 299 305 308 312 312 312 309 307 306 309 309 309 299 288 282 280 281 277 274 269 256 252 251 250 248 254 248 240 238 239 240 242 245 244 243 245
286 289 287 288 291 293 298 303 306 309 313 317 317 319 324 322 332 302 311 305 299 299 296 287 282 274 261 253 250 241 244 245 248 245 240 232 233 236 239 241 241 241 241
285 290 295 295 297 298 301 305 315 320 324 332 328 327 326 325 332 339 319 321 327 319 319 311 300 283 266 253 248 237 235 239 247 244 239 233 228 230 234 237 238 239 239
303 304 306 307 312 312 317 320 319 327 332 337 344 352 345 323 339 339 337 325 332 326 327 327 312 293 272 263 252 241 231 238 244 241 241 232 229 229 231 233 235 238 239
322 322 320 318 315 316 319 322 330 335 335 339 338 345 356 354 347 337 342 352 352 353 342 336 332 311 287 271 255 239 233 232 237 244 244 232 227 226 228 231 233 235 237
313 315 319 316 318 332 338 339 340 343 346 347 346 352 358 2 0 349 358 335 335 336 331 342 338 328 311 277 258 240 231 236 244 245 240 225 224 225 227 229 235 235 238
323 325 329 327 329 334 335 328 332 334 336 343 347 348 350 354 357 5 14 7 1 348 332 337 282 317 305 283 258 245 241 238 245 240 236 229 227 227 229 227 236 240 232
339 331 329 327 328 330 329 331 331 338 339 343 346 353 349 349 350 353 357 7 10 359 346 338 354 254 288 277 258 251 251 251 245 235 244 223 223 225 237 225 222 229 242
326 327 325 322 325 326 326 330 331 333 332 335 336 337 343 349 347 349 351 354 357 0 1 359 359 346 325 307 245 242 257 281 249 241 250 232 220 257 238 234 233 217 235
320 323 323 329 330 326 327 328 327 327 327 329 332 334 334 333 332 335 342 347 343 346 348 353 357 358 353 6 1 282 268 256 253 238 225 246 242 226 232 234 245 213 225
332 332 332 330 325 323 324 322 319 321 322 323 323 325 326 328 330 330 327 328 331 336 339 335 333 337 343 344 345 353 332 236 190 179 204 224 233 225 227 233 230 221 227
331 329 327 323 322 322 320 318 317 317 319 319 321 323 324 325 326 328 329 328 327 325 322 325 333 326 317 318 318 318 314 305 290 287 293 286 269 242 230 223 232 236 235
Height
5907 5905 5903 5901 5902 5900 5902 5901 5902 5902 5902 5900 5901 5902 5902 5904 5905 5906 5906 5905 5904 5904 5903 5903 5904 5903 5904 5904 5904 5903 5903 5903 5905 5909 5908 5908 5907 5907 5907 5906 5906 5906 5907
5898 5895 5893 5891 5893 5894 5892 5891 5893 5892 5892 5891 5893 5894 5893 5896 5894 5895 5894 5893 5892 5893 5893 5893 5894 5893 5894 5894 5894 5894 5893 5894 5894 5897 5899 5900 5900 5899 5898 5899 5899 5899 5899
5887 5884 5883 5880 5881 5881 5881 5881 5882 5883 5884 5883 5882 5881 5880 5879 5879 5878 5879 5878 5877 5878 5880 5880 5883 5882 5883 5883 5883 5884 5884 5884 5884 5885 5890 5890 5890 5890 5889 5889 5891 5891 5890
5878 5875 5863 5869 5873 5872 5871 5870 5870 5869 5870 5873 5871 5870 5870 5870 5868 5864 5863 5863 5864 5865 5866 5866 5868 5869 5869 5870 5870 5872 5873 5873 5873 5873 5876 5879 5879 5879 5878 5880 5881 5881 5883
5864 5863 5858 5856 5858 5859 5860 5859 5859 5859 5857 5857 5857 5857 5856 5854 5853 5850 5847 5846 5846 5849 5851 5852 5853 5854 5855 5855 5853 5857 5858 5858 5860 5861 5863 5865 5869 5869 5868 5868 5870 5872 5872
5853 5851 5850 5850 5850 5849 5848 5847 5843 5841 5840 5840 5837 5837 5837 5836 5835 5832 5829 5828 5827 5827 5830 5833 5833 5836 5837 5838 5838 5837 5840 5843 5844 5845 5849 5850 5856 5856 5857 5856 5857 5859 5862
5841 5839 5838 5837 5836 5836 5834 5831 5828 5827 5826 5824 5822 5819 5818 5814 5812 5808 5805 5803 5805 5807 5806 5808 5812 5815 5816 5817 5819 5820 5821 5822 5826 5831 5832 5837 5841 5843 5842 5844 5845 5846 5849
5830 5829 5826 5823 5822 5819 5817 5814 5812 5810 5808 5805 5800 5796 5792 5789 5786 5784 5781 5779 5782 5784 5784 5784 5784 5790 5794 5795 5795 5799 5803 5805 5807 5810 5814 5820 5823 5827 5827 5831 5831 5833 5836
5816 5814 5812 5810 5808 5806 5803 5798 5795 5791 5785 5780 5776 5771 5765 5764 5757 5753 5749 5749 5753 5757 5757 5760 5761 5763 5767 5768 5769 5775 5779 5788 5789 5790 5794 5798 5806 5808 5811 5813 5818 5818 5823
5805 5802 5799 5797 5794 5790 5786 5781 5777 5772 5767 5760 5754 5748 5742 5737 5732 5725 5719 5717 5720 5722 5726 5731 5732 5734 5736 5737 5739 5746 5755 5770 5766 5769 5775 5778 5785 5792 5794 5796 5800 5804 5807
5791 5788 5785 5783 5779 5776 5771 5766 5761 5756 5751 5742 5735 5727 5720 5714 5709 5700 5693 5688 5688 5691 5695 5697 5699 5700 5703 5706 5709 5715 5730 5740 5738 5744 5752 5760 5765 5773 5778 5781 5783 5787 5791
5777 5775 5773 5769 5766 5764 5759 5754 5748 5741 5734 5726 5718 5712 5705 5698 5692 5685 5676 5671 5668 5669 5671 5672 5673 5672 5672 5675 5681 5688 5698 5705 5711 5723 5730 5740 5747 5754 5762 5766 5768 5769 5773
5765 5763 5760 5757 5754 5750 5747 5741 5735 5729 5721 5712 5704 5697 5690 5681 5673 5666 5660 5655 5651 5651 5652 5652 5652 5652 5652 5655 5658 5661 5666 5674 5685 5695 5707 5717 5725 5733 5739 5746 5752 5754 5756
5753 5750 5747 5744 5741 5737 5734 5730 5724 5716 5707 5700 5691 5683 5674 5665 5657 5647 5641 5637 5634 5633 5631 5630 5630 5632 5633 5634 5636 5640 5646 5652 5660 5669 5683 5694 5701 5710 5719 5728 5734 5739 5740
5741 5739 5736 5733 5730 5727 5723 5718 5712 5706 5697 5688 5678 5670 5662 5654 5646 5638 5630 5625 5621 5617 5613 5610 5607 5606 5608 5610 5614 5619 5626 5633 5639 5647 5658 5672 5682 5691 5700 5707 5716 5721 5725
5731 5729 5725 5723 5720 5717 5713 5710 5704 5697 5692 5682 5671 5662 5655 5644 5636 5628 5624 5619 5612 5605 5599 5590 5585 5581 5581 5585 5590 5599 5608 5616 5624 5629 5639 5650 5663 5673 5682 5689 5697 5704 5709
5721 5719 5717 5715 5712 5709 5705 5701 5700 5696 5687 5678 5666 5655 5647 5639 5630 5622 5617 5610 5601 5594 5586 5577 5571 5568 5567 5570 5575 5584 5596 5605 5611 5618 5624 5634 5644 5653 5663 5672 5680 5687 5693
5716 5714 5711 5709 5706 5703 5700 5697 5692 5687 5681 5673 5663 5654 5643 5634 5626 5616 5609 5602 5595 5585 5578 5571 5565 5563 5562 5564 5568 5576 5585 5595 5601 5607 5613 5620 5629 5637 5646 5656 5664 5671 5679
5712 5710 5708 5705 5702 5699 5696 5692 5687 5681 5676 5667 5660 5651 5642 5631 5622 5615 5607 5601 5587 5583 5578 5572 5566 5563 5562 5563 5566 5571 5580 5587 5592 5597 5602 5607 5615 5625 5632 5641 5649 5656 5662
5710 5707 5705 5702 5699 5694 5691 5687 5682 5677 5672 5665 5657 5649 5639 5631 5625 5617 5610 5601 5595 5586 5577 5573 5570 5566 5565 5565 5569 5573 5578 5582 5587 5590 5593 5597 5602 5612 5620 5628 5635 5642 5648
5707 5704 5701 5698 5695 5690 5686 5683 5678 5673 5667 5661 5655 5646 5639 5631 5623 5617 5610 5603 5597 5593 5587 5579 5571 5569 5569 5568 5570 5573 5577 5580 5584 5588 5588 5595 5599 5605 5610 5615 5622 5628 5635
5704 5701 5698 5694 5690 5685 5681 5677 5672 5666 5662 5656 5652 5647 5639 5631 5625 5618 5612 5606 5599 5594 5589 5587 5580 5575 5573 5568 5568 5572 5576 5578 5580 5581 5579 5588 5594 5595 5593 5603 5610 5616 5623
5701 5698 5694 5690 5686 5681 5677 5672 5667 5661 5656 5652 5647 5642 5638 5633 5626 5620 5615 5609 5604 5598 5593 5587 5584 5581 5577 5573 5571 5572 5572 5573 5574 5578 5579 5581 5587 5590 5595 5596 5599 5605 5610
5698 5694 5690 5685 5680 5677 5672 5667 5662 5657 5651 5646 5642 5637 5631 5626 5623 5619 5614 5608 5603 5600 5596 5593 5588 5584 5580 5578 5575 5573 5573 5572 5571 5571 5575 5579 5583 5583 5584 5587 5589 5591 5592
5692 5688 5684 5680 5676 5672 5667 5662 5657 5651 5646 5640 5635 5632 5627 5621 5616 5612 5608 5604 5602 5597 5594 5591 5586 5583 5582 5580 5578 5578 5576 5575 5573 5572 5573 5577 5578 5578 5579 5581 5583 5584 5587
5688 5683 5679 5674 5670 5665 5660 5655 5650 5646 5641 5637 5631 5625 5620 5616 5612 5607 5603 5599 5593 5590 5590 5588 5584 5581 5579 5577 5574 5574 5575 5576 5576 5574 5572 5572 5572 5574 5575 5574 5574 5577 5579